Preview of NWS' New Version of Forecast
This preview is not operational and should not be used for support decisions.

Regional Weather Roundup (RWR)

Issued by Gray - Portland, ME (GYX)

                            
000
ASUS41 KGYX 221510
RWRGYX
WEATHER ROUNDUP FOR MAINE AND NEW HAMPSHIRE
NATIONAL WEATHER SERVICE GRAY ME
1100 AM EDT MON JUL 22 2019

MEZ002-005-006-010-012-015-018-020-021-024-026-027-029-221600-
MAINE
  
CITY           SKY/WX    TMP DP  RH WIND       PRES   REMARKS
PORTLAND       PTSUNNY   81  62  52 CALM      29.89S                  
SANFORD        FAIR      78  64  61 NE3       29.90S                  
BAR HARBOR     PTSUNNY   78  62  57 CALM      29.87S                  
WISCASSET      FAIR      79  61  53 E5        29.90R                  
ROCKLAND       FAIR      77  63  61 CALM      29.88R                  
FRYEBURG       PTSUNNY   76  60  57 NE5       29.93R                  
LEWISTONAUBURN FAIR      77  61  57 CALM      29.91R                  
AUGUSTA        FAIR      76  60  57 N7        29.91R                  
WATERVILLE     FAIR      75  57  53 N5        29.88S                  
BANGOR         PTSUNNY   75  61  61 NW7       29.88F                  
GREENVILLE       N/A     66  55  67 NW9       29.91R                  
MILLINOCKET    FAIR      71  54  54 NW8       29.90S                  
HOULTON        FAIR      70  53  54 N10       29.86S                  
PRESQUE ISLE   FAIR      68  48  48 NW7       29.88F                  
FRENCHVILLE    FAIR      63  42  46 N12G23    29.89R                  
CARIBOU        FAIR      68  48  48 VRB6      29.87S                  
$$

NHZ002-005-008-009-011-012-014-221600-
NEW HAMPSHIRE
  
CITY           SKY/WX    TMP DP  RH WIND       PRES   REMARKS
PORTSMOUTH     CLOUDY    77  61  57 NE7       29.88S                  
ROCHESTER      FAIR      78  62  57 CALM      29.90S                  
NASHUA         PTSUNNY   79  66  64 NE6       29.90R                  
MANCHESTER     PTSUNNY   79  64  60 NE3       29.88S                  
CONCORD        PTSUNNY   76  64  66 NW3       29.90R                  
LACONIA        LGT RAIN  75  64  68 NW5       29.92R                  
PLYMOUTH       CLOUDY    70  61  71 W7        29.92S                  
BERLIN         FAIR      70  52  52 CALM      29.96R                  
WHITEFIELD     FAIR      68  55  63 W6        29.97R                  
JAFFREY        PTSUNNY   77  62  59 VRB5      29.93S                  
KEENE          LGT RAIN  72  67  84 N5        29.92R                  
LEBANON        LGT RAIN  71  61  70 NE3       29.94R                  
MT WASHINGTON  MOSUNNY   50  41  71 NW20        N/A                   
$$

VTZ005-007-008-221600-
VERMONT
  
CITY           SKY/WX    TMP DP  RH WIND       PRES   REMARKS
ST JOHNSBURY     N/A     67  55  65 MISG      29.96R                  
MONTPELIER     LGT RAIN  62  57  83 NW3       30.02R                  
BURLINGTON     LGT RAIN  68  60  75 W6        29.96R                  
$$

MAZ007-012-024-CTZ003-RIZ002-NYZ038-NYZ072-221600-
SOUTHERN NEW ENGLAND AND NY
  
CITY           SKY/WX    TMP DP  RH WIND       PRES   REMARKS
BOSTON         PTSUNNY   83  66  56 E12       29.87S                  
WORCESTER      FAIR      78  65  63 NE6       29.91S                  
NANTUCKET      FAIR      84  70  62 N6        29.85S                  
PROVIDENCE     PTSUNNY   82  67  60 E8G22     29.86F                  
HARTFORD       PTSUNNY   80  63  55 NW6       29.87S                  
ALBANY         CLOUDY    71  63  75 NE5       29.91S                  
NEW YORK CITY  PTSUNNY   85  67  54 SE10      29.83F                  
$$

ANZ081-ANZ082-ANZ150-NHZ014-MEZ023>029-221600-
COASTAL MARINE OBSERVATIONS
  
STATION/POSITION TIME  TEMP    WIND        PRES    WAVE
                       AIR SEA DIR/SP/G            HT/PER
                 (UTC) (F)     (DEG/KT/KT) (MB)    (FT/S)
ISLE OF SHOALS   1400   71      20/ 11/ 12 1011.5R
JEFFREYS LEDGE   1438      68                N/A     2/ 7
CASHES LEDGE BUO 1450   65 64   80/  2/  2 1012.3R   2/ 7
GEORGES BANK BUO 1450   64 61  110/  4/  4 1011.7R   2/ 6
$$

.............KEY..............
   WCI - WIND CHILL
   TC  - TEMPERATURE IN CELSIUS
   VSB - VISIBILITY IN MILES
   HX  - HEAT INDEX
   FAIR- INDICATES FEW OR NO CLOUDS BELOW 12,000 FT, WITH NO 
         SIGNIFICANT WEATHER AND/OR OBSTRUCTIONS TO VISIBILITY.